Wind_Speed
20 24 23 19 17 16 16 16 16 17 18 18 18 17 16 15 15 15 14 14 13 13 13 14 13 12 12 12 11 12 13 13 14 14 14 14 14 15 15 15 15 15 15 14 14 15 15 15 15 14 14 14 14 14 13 13 12 11 10 9 8 8 10 12 12 11 11 9 7 9 11 12 12 12 12 12 13 13 14 14 15 15 15 14 14
22 25 23 20 18 17 17 17 17 18 19 19 19 18 17 16 16 15 15 14 14 13 14 14 13 12 11 11 11 12 13 13 13 13 14 14 14 15 15 16 15 15 14 14 14 14 15 14 14 13 13 13 13 13 12 12 11 10 8 7 6 8 9 10 10 9 10 9 8 9 11 13 13 12 12 12 13 14 14 14 13 14 14 13 12
24 25 23 21 19 17 18 17 18 18 19 19 19 19 18 17 16 15 15 14 14 14 14 15 13 12 11 11 12 12 13 13 13 13 14 14 15 15 15 16 15 14 14 14 14 14 13 13 13 13 13 12 12 12 11 11 10 9 8 7 5 6 6 7 7 7 8 10 11 12 12 13 13 12 11 10 10 10 11 10 11 13 13 13 13
25 25 23 21 19 18 18 18 19 18 19 19 20 19 18 17 16 15 14 14 13 14 16 15 13 12 12 12 12 12 13 13 13 13 14 14 14 15 15 15 14 14 13 13 14 13 12 12 12 12 12 11 10 10 11 11 11 10 9 8 5 5 6 7 6 5 7 9 12 14 13 11 11 11 9 8 7 7 8 9 12 13 12 11 11
25 25 23 21 20 19 19 19 19 19 19 19 20 19 18 17 16 15 14 14 14 16 16 14 13 12 12 12 12 12 13 13 13 14 14 14 14 14 14 14 13 13 13 13 13 12 12 12 11 11 10 10 10 10 11 12 12 11 11 10 9 10 11 10 7 5 5 5 6 9 11 11 10 10 8 8 8 8 8 8 12 13 12 10 8
24 24 23 21 21 19 19 20 19 19 19 19 19 19 18 17 16 15 14 15 17 17 15 13 13 13 12 12 12 12 13 13 13 13 14 13 13 13 13 13 13 13 13 13 12 12 11 10 10 9 9 9 9 10 10 11 12 12 12 14 15 15 14 11 8 5 3 1 1 3 8 9 9 10 10 11 12 12 11 9 11 12 12 10 9
23 23 21 21 21 20 20 20 20 19 19 20 19 19 18 17 17 16 16 18 18 16 14 14 14 13 12 12 12 12 13 13 13 13 14 14 13 12 12 12 12 12 12 12 11 11 10 10 10 8 8 8 9 9 8 10 11 11 13 16 17 15 12 9 7 4 2 2 1 4 8 7 8 12 11 11 13 13 13 10 10 11 11 10 9
21 21 19 20 22 21 20 20 20 20 20 20 20 20 19 18 18 17 18 19 17 15 14 14 14 14 13 12 12 12 12 12 12 13 13 13 12 12 11 11 11 12 11 11 10 10 9 9 8 7 7 8 9 8 8 8 10 11 14 15 14 12 10 8 7 7 6 6 4 8 9 7 8 11 11 10 12 12 11 12 10 10 10 10 9
21 20 19 21 22 22 21 21 20 20 20 21 21 21 21 20 19 19 19 19 17 15 15 14 14 14 13 13 12 12 12 12 12 12 12 11 11 11 10 10 10 10 10 9 9 9 8 8 7 7 8 9 9 9 9 8 9 11 13 14 13 11 9 8 9 11 11 10 12 13 11 10 9 11 11 11 11 11 10 10 11 10 9 9 9
21 19 20 21 23 23 22 22 20 20 20 21 21 22 22 21 20 20 20 18 16 16 15 15 14 14 13 13 13 12 12 11 11 10 10 9 9 9 9 8 8 8 8 7 7 8 8 8 8 8 9 9 9 10 10 9 8 10 12 12 11 9 8 8 9 11 12 11 11 12 11 10 11 12 11 10 9 9 8 7 9 10 10 10 10
21 20 20 22 23 23 23 23 21 20 20 21 22 22 21 20 20 20 19 17 16 16 15 15 14 14 13 13 12 11 10 10 9 8 7 7 7 7 7 7 7 7 6 6 7 8 9 9 9 9 9 9 9 10 10 9 9 11 12 11 9 8 8 8 8 8 10 12 11 11 11 10 12 12 10 9 8 8 7 7 9 9 9 9 9
22 22 20 22 23 23 24 23 21 20 21 23 22 21 20 19 19 19 18 17 16 16 16 15 15 14 13 12 11 10 8 7 6 6 5 5 5 6 6 6 5 5 5 5 6 8 9 8 9 9 9 9 9 10 10 10 9 12 11 9 7 7 8 9 9 7 8 12 12 11 10 9 11 11 9 9 9 8 8 8 8 7 8 8 7
24 24 23 23 22 23 24 23 21 20 22 23 21 20 19 18 18 18 18 17 17 16 16 15 15 14 13 12 10 9 7 6 5 5 4 4 4 4 4 5 4 4 4 4 6 8 8 8 8 9 9 9 9 10 10 9 9 11 10 9 8 8 10 11 10 8 9 11 10 8 6 7 9 10 8 7 7 7 7 6 6 6 6 5 5
26 26 24 22 20 22 24 23 22 21 22 21 21 20 19 19 18 18 18 17 16 16 16 15 15 14 12 11 9 8 7 7 6 5 4 4 3 3 2 3 3 4 5 5 7 9 8 8 8 9 9 8 9 9 10 9 8 10 9 9 8 8 9 10 11 8 8 10 9 6 5 6 8 9 7 5 6 6 5 4 4 5 5 5 5
27 27 24 21 19 20 21 23 22 21 22 21 20 19 19 19 18 18 17 17 16 16 16 15 15 13 12 10 9 8 8 7 5 5 4 4 5 4 3 2 3 4 5 6 8 9 8 7 8 8 8 8 8 9 9 9 8 8 8 7 7 8 9 10 10 7 6 9 8 4 4 5 5 7 6 4 5 4 4 3 3 4 5 5 6
27 27 24 21 20 19 19 21 22 21 21 21 19 19 19 18 17 17 17 17 16 16 16 15 14 13 11 9 8 8 7 6 5 5 5 5 6 6 4 3 4 5 6 8 9 10 8 7 7 8 7 7 7 7 8 8 7 6 6 7 7 8 8 8 8 6 5 7 6 2 3 5 5 3 4 3 3 3 3 3 3 3 4 4 5
27 26 25 21 20 20 19 20 21 21 21 20 19 18 18 18 18 17 16 16 16 16 15 15 14 12 10 8 7 7 7 6 5 5 5 6 6 7 6 5 4 5 6 8 10 10 8 7 7 7 6 6 6 6 7 7 7 6 7 8 8 8 8 7 9 8 4 5 6 4 1 4 6 4 1 2 2 3 2 2 2 1 2 2 3
26 26 25 22 20 20 20 20 20 19 19 19 18 18 17 17 17 17 16 16 16 16 15 14 13 11 9 7 7 6 6 5 5 5 5 6 6 6 7 6 5 4 6 8 10 10 8 7 6 5 5 5 4 5 5 6 8 9 9 8 7 7 7 6 7 6 4 4 5 4 1 5 7 5 1 1 2 2 1 1 1 1 3 2 2
25 25 24 23 21 20 21 21 19 18 18 18 18 17 17 17 17 17 16 16 16 15 15 14 12 11 9 7 6 5 6 6 5 5 4 5 5 6 6 7 6 4 5 8 10 9 8 6 5 4 4 4 3 3 4 4 6 9 9 8 6 6 6 5 4 3 4 3 3 2 2 6 7 4 2 1 2 1 0 0 0 0 1 2 0
24 24 23 23 23 22 22 21 20 18 18 17 16 16 17 17 16 16 16 16 15 14 14 13 11 9 8 7 5 5 6 6 6 5 5 4 4 4 5 6 6 5 5 7 9 9 7 6 4 3 2 2 2 2 3 3 4 5 6 5 3 4 5 6 6 2 3 3 4 2 2 8 6 3 1 1 2 1 0 1 2 0 1 2 0
23 24 24 25 25 24 23 21 20 19 19 19 17 16 17 17 15 15 15 15 14 13 12 11 10 9 8 6 4 5 5 6 5 4 4 4 4 3 3 5 5 6 6 7 8 7 6 5 4 2 1 0 1 1 3 4 4 3 3 2 1 2 4 6 6 4 2 5 5 4 3 7 6 2 1 1 1 2 3 3 2 1 0 1 0
22 22 23 26 25 24 23 21 21 20 20 20 18 16 17 16 14 15 15 15 14 13 12 10 10 9 8 6 5 6 4 4 4 3 2 2 2 2 2 3 4 4 5 6 7 7 6 5 4 3 2 2 3 4 4 5 4 3 3 2 2 2 3 4 4 5 2 5 6 4 4 7 7 3 3 2 1 3 6 5 1 1 1 1 2
22 21 23 25 24 23 22 22 22 22 20 19 18 18 18 16 14 14 14 15 14 12 11 10 10 8 8 5 5 6 5 5 4 4 4 1 2 1 1 2 3 3 3 4 5 6 6 6 5 5 5 5 5 4 5 8 7 5 5 5 6 4 3 4 6 5 3 4 5 5 6 7 7 3 2 2 2 4 5 4 2 2 2 2 3
22 22 23 25 23 24 23 23 24 24 21 18 19 20 19 17 16 14 13 14 13 12 11 10 10 8 7 5 4 6 7 5 4 5 5 2 1 0 0 0 1 3 2 1 2 3 3 4 6 7 7 8 8 6 6 11 11 9 8 8 8 5 4 7 8 8 6 6 7 6 6 7 7 4 2 3 4 5 6 5 3 3 4 3 4
23 22 23 23 23 24 25 25 26 24 21 19 20 20 19 18 18 15 13 15 13 12 11 10 10 9 9 6 5 8 7 4 4 5 5 4 2 1 1 1 1 2 2 1 1 1 3 5 5 5 6 8 9 8 8 12 13 12 13 10 8 6 8 10 10 11 8 7 8 7 7 8 8 6 4 5 6 5 6 6 4 4 5 5 6
22 22 23 23 24 25 26 26 24 23 21 19 19 19 20 19 18 16 14 14 14 12 12 11 10 10 9 7 6 8 8 4 3 4 4 6 7 5 2 1 1 1 2 2 3 5 6 7 7 6 5 7 8 9 9 12 13 12 14 12 8 8 10 11 11 11 9 9 9 9 10 10 9 8 6 6 6 5 7 7 5 5 6 7 7
22 22 23 24 26 25 25 24 22 22 19 18 19 19 20 19 17 18 15 14 15 13 13 12 10 10 9 7 7 7 6 4 4 4 3 5 7 5 4 3 2 4 3 2 5 6 7 9 10 8 7 8 8 9 11 12 12 12 14 14 11 10 11 11 12 11 9 10 10 9 11 11 11 10 9 7 7 6 7 9 7 5 7 10 11
22 23 23 24 25 24 24 23 21 21 20 19 18 17 18 18 16 17 14 13 15 13 13 12 10 10 9 8 9 7 5 5 5 4 6 7 6 4 4 5 4 6 6 4 6 5 5 7 8 9 9 10 10 11 12 12 12 13 14 13 12 13 13 13 14 12 10 10 10 10 11 12 12 11 10 9 8 8 8 10 9 7 8 12 12
24 24 24 24 24 24 23 22 21 19 19 18 16 16 16 16 16 15 14 13 13 12 12 11 10 10 10 9 8 7 6 6 7 6 8 7 6 5 5 5 4 6 5 4 6 6 7 7 7 8 9 10 12 12 12 12 13 13 13 13 13 14 14 13 14 14 12 11 12 11 11 13 12 11 12 10 10 10 9 11 10 9 10 11 11
24 25 24 23 24 23 21 20 20 18 18 16 15 16 15 15 15 15 15 14 12 13 12 11 10 9 10 9 8 7 7 7 7 7 8 6 5 7 7 5 5 6 5 6 8 8 8 7 8 8 9 11 13 13 12 12 14 13 14 14 14 15 14 13 13 13 13 13 14 13 13 14 13 13 13 12 12 12 11 12 12 10 11 11 11
23 24 22 23 23 21 20 19 18 18 17 15 15 15 14 15 13 13 15 13 12 13 13 11 10 10 10 9 9 8 8 7 7 7 7 6 6 7 7 6 7 7 7 7 7 7 7 7 7 9 10 12 13 13 12 13 14 14 14 15 15 15 15 15 15 13 13 14 15 16 17 17 16 15 14 14 14 13 14 14 14 12 11 11 12
23 22 23 23 21 19 20 18 16 16 16 15 15 13 14 15 12 13 14 12 12 12 11 11 10 10 10 10 10 8 7 7 5 4 4 4 5 5 5 5 6 6 6 5 5 5 6 7 9 10 11 12 13 15 14 14 15 15 14 15 17 16 14 15 17 17 15 15 15 16 18 19 19 18 17 17 16 15 15 15 16 14 13 13 13
21 21 23 21 18 19 17 15 16 14 13 15 15 13 14 13 12 13 12 11 12 12 11 11 11 10 9 9 8 7 7 6 5 3 2 3 4 5 5 5 4 4 4 4 4 5 6 7 8 9 9 10 13 14 14 15 16 16 15 15 16 16 15 15 15 15 15 16 15 16 19 21 21 21 20 20 18 17 16 17 18 17 15 16 15
21 21 22 21 18 18 15 14 14 11 11 14 13 13 13 12 13 13 12 12 12 12 12 11 10 8 7 7 7 7 6 6 6 5 4 4 4 4 5 4 4 4 4 4 4 4 5 6 7 8 9 10 12 13 13 15 15 15 15 15 15 16 16 15 14 13 13 15 16 17 18 19 21 23 23 22 21 19 17 17 19 19 18 17 17
22 20 20 21 18 17 15 14 13 11 12 13 11 12 13 13 13 13 13 12 11 12 11 10 9 6 5 6 7 7 6 6 6 5 5 5 5 4 4 4 3 3 2 4 4 4 5 6 7 8 10 11 12 13 13 14 14 15 14 14 16 17 16 16 16 16 15 15 16 16 18 19 20 23 25 25 24 22 19 18 19 21 21 19 18
21 20 20 19 17 15 15 16 14 13 13 12 11 13 13 13 12 11 11 10 9 8 8 8 8 6 6 6 6 7 6 6 5 4 4 4 4 3 3 3 2 1 2 4 4 5 6 7 7 8 10 12 12 13 13 13 14 15 15 15 16 16 16 16 17 18 17 17 17 17 20 22 21 21 24 25 25 25 23 21 20 21 22 21 20
16 18 18 16 15 15 17 18 15 15 13 12 12 12 12 11 11 9 8 8 6 6 7 7 6 6 7 7 7 6 6 6 5 3 3 3 2 2 2 2 1 2 3 4 5 5 7 7 8 9 9 11 12 13 13 13 14 14 14 14 15 15 16 17 18 19 19 20 21 21 20 20 19 19 21 23 25 25 24 23 21 21 22 23 23
17 18 17 17 19 19 19 17 15 15 14 12 12 10 9 8 8 9 9 8 4 2 6 7 8 6 5 6 6 5 4 4 4 2 2 1 0 1 1 0 2 3 4 4 5 6 7 8 9 10 10 11 12 13 14 13 13 14 14 14 14 16 17 18 19 19 19 19 21 21 20 19 20 20 20 22 23 23 23 23 22 21 22 24 25
18 18 21 22 22 20 18 16 15 15 12 12 13 10 8 8 7 8 8 6 4 2 4 5 5 4 4 6 5 4 3 2 3 2 1 1 1 2 2 3 3 4 5 6 7 7 8 9 10 11 11 11 11 13 14 13 14 15 15 15 16 17 17 18 18 18 18 20 20 21 22 21 19 19 20 20 20 19 21 23 23 22 22 24 25
17 19 20 20 20 18 17 17 16 14 12 12 11 8 7 7 7 6 3 3 4 4 4 4 5 4 5 6 5 4 3 3 2 2 3 3 3 4 4 5 6 6 7 7 8 8 9 10 10 11 12 12 12 12 12 13 15 15 15 16 16 16 18 19 18 17 19 20 21 21 20 19 17 18 18 17 17 17 20 23 23 22 22 24 25
17 20 21 21 20 17 17 17 15 14 14 11 8 5 4 4 4 4 3 4 6 6 6 6 7 7 5 5 6 6 6 7 7 6 7 7 6 7 7 7 8 7 8 8 8 8 9 10 11 12 11 12 13 12 12 13 14 13 13 15 16 16 16 16 16 16 17 18 19 19 19 18 18 18 17 16 15 13 17 21 22 21 21 23 26
17 19 22 25 23 20 19 17 16 15 15 12 7 4 4 3 2 3 5 6 7 8 8 8 7 6 5 8 9 9 9 10 10 9 9 9 9 9 9 9 9 9 9 9 9 9 9 11 11 12 12 12 13 12 12 12 10 11 11 11 13 14 12 10 9 10 13 16 17 18 20 19 19 20 19 18 15 12 14 18 19 19 21 24 25
15 16 21 25 23 20 19 17 17 16 15 12 7 6 7 4 2 2 4 5 7 8 9 10 8 6 8 10 10 10 10 10 11 10 10 10 10 10 10 10 10 10 10 10 10 11 12 13 12 13 13 13 12 12 12 10 10 13 11 7 5 7 7 3 4 10 14 14 14 15 17 18 19 20 19 18 17 15 16 18 18 19 22 24 24
13 15 21 23 20 21 21 19 18 16 14 12 8 6 6 5 5 4 4 6 8 10 10 9 7 6 9 10 10 10 10 11 11 10 10 11 10 10 10 10 11 10 11 12 12 12 13 14 14 15 15 14 14 14 13 11 11 10 7 5 4 4 3 2 10 17 14 10 12 15 15 17 19 19 18 18 17 15 16 19 19 18 20 22 23
12 14 18 20 20 22 22 19 17 15 14 13 11 8 6 5 6 6 6 6 7 9 8 5 5 7 9 10 11 11 11 11 11 10 10 11 11 10 10 10 11 11 11 12 12 12 13 14 15 16 16 16 15 16 15 14 13 10 6 4 4 2 2 6 11 12 11 12 15 16 15 15 16 17 18 18 18 17 17 19 20 20 20 20 21
14 14 16 18 20 23 23 19 18 17 15 15 14 13 11 7 5 7 7 5 5 5 5 5 7 9 9 9 10 11 11 11 11 11 10 10 11 11 10 11 11 11 12 13 13 13 14 14 16 16 17 17 17 16 16 18 17 13 10 8 6 6 7 8 6 5 11 16 14 14 15 15 15 15 16 17 18 18 19 20 21 21 22 22 22
16 17 16 18 20 21 21 19 19 19 19 18 16 15 14 10 7 6 7 6 5 5 7 8 10 10 10 9 9 10 10 10 11 11 11 11 11 11 10 10 11 11 12 12 13 14 14 14 15 15 16 17 17 17 16 19 19 16 17 16 13 12 12 10 6 4 8 11 13 15 15 14 14 15 15 16 17 18 20 21 21 21 21 23 24
18 18 17 18 17 18 20 20 20 20 19 19 16 14 13 12 11 8 7 7 7 7 8 9 9 10 11 10 9 9 9 9 11 12 11 11 12 12 10 10 10 11 11 11 12 14 14 13 14 14 15 16 16 16 16 17 17 17 20 21 19 18 16 13 10 7 5 6 11 14 15 16 17 17 17 17 18 19 20 21 20 20 20 22 23
18 18 18 17 17 20 22 21 21 21 19 18 16 14 13 12 13 12 10 9 8 8 9 9 10 11 11 10 10 9 9 10 10 11 11 11 11 11 11 10 10 11 11 11 12 13 14 13 13 14 16 15 14 15 16 17 16 17 19 20 20 20 19 18 16 13 9 7 7 8 13 18 17 17 17 18 19 19 19 20 21 20 20 20 22
20 19 18 18 19 22 25 24 24 23 20 19 18 16 13 11 12 11 9 9 9 9 10 10 11 10 11 11 9 9 10 10 10 10 10 10 10 10 11 11 11 11 12 12 12 13 13 13 14 14 15 16 15 15 15 17 17 17 18 18 18 18 18 16 17 19 15 10 8 8 12 15 13 16 19 18 17 17 17 18 20 22 22 22 22
20 20 20 20 21 23 27 27 25 23 21 19 18 17 15 13 13 12 9 8 9 9 10 11 10 10 11 9 8 7 8 9 9 10 10 10 10 10 11 10 11 12 11 11 13 13 12 13 14 14 14 16 16 15 15 18 18 18 17 17 17 17 16 14 16 18 15 11 10 8 12 16 15 17 21 22 21 17 16 17 19 21 23 24 23
Wind_Direction
131 140 135 134 130 130 132 130 128 121 122 124 123 124 127 129 130 131 128 125 118 112 113 117 115 107 98 95 93 91 92 90 90 90 92 94 95 96 96 94 92 91 92 91 89 90 89 87 86 83 81 80 79 77 74 72 71 70 73 76 79 79 79 77 66 61 62 62 88 100 92 88 83 79 74 74 81 81 78 71 69 70 66 66 66
130 138 135 133 130 131 134 133 128 124 125 125 126 127 130 130 130 131 129 126 120 117 120 121 118 110 103 102 100 97 95 93 92 92 93 95 96 96 96 95 93 91 91 91 90 89 88 87 85 85 84 83 80 75 70 66 65 64 65 73 82 86 89 81 64 66 76 77 88 98 96 91 85 82 78 77 84 84 82 79 74 74 68 63 61
133 136 134 133 130 132 136 135 131 128 126 127 129 129 130 132 132 132 130 127 121 121 125 125 122 114 108 107 104 101 98 96 96 95 96 97 97 97 95 93 92 91 91 91 90 88 86 87 86 87 84 81 76 68 63 61 63 62 60 64 84 100 98 77 69 83 90 93 93 91 89 89 88 84 80 78 84 83 80 78 76 77 70 67 64
131 135 135 134 133 135 139 138 135 133 129 129 132 132 133 134 134 134 131 127 123 124 128 126 122 117 114 112 107 105 102 101 98 98 98 97 98 98 95 93 93 93 93 92 90 88 87 88 87 85 80 74 68 63 58 58 60 61 60 60 78 96 98 93 95 106 106 112 100 87 76 76 90 89 87 81 71 68 67 71 74 75 70 73 75
127 137 137 135 138 139 141 141 138 138 134 132 134 135 134 134 134 134 132 127 126 127 127 124 122 120 118 115 110 108 106 105 103 101 101 100 100 98 96 96 96 95 93 91 89 88 88 88 86 80 74 69 63 60 55 56 59 60 62 67 85 98 103 106 112 113 112 137 118 86 68 64 83 89 85 75 62 55 56 69 75 72 67 64 66
129 136 136 137 142 143 143 142 140 139 137 137 137 137 136 134 133 132 131 128 128 128 125 124 123 121 120 116 112 110 108 107 106 105 104 103 102 99 98 99 98 97 93 92 90 89 88 85 79 71 69 64 58 56 52 54 56 61 76 87 94 99 99 97 101 105 95 149 181 94 79 68 75 84 79 73 68 60 56 67 77 71 67 61 55
129 132 135 140 145 147 145 143 142 140 138 139 140 140 138 135 134 134 132 131 131 128 127 127 124 122 121 116 113 112 111 109 108 107 106 102 99 98 98 98 97 95 92 91 90 85 81 76 67 63 65 58 52 49 48 51 54 71 94 100 99 99 95 90 86 80 60 341 283 120 99 80 79 85 81 76 72 67 62 66 85 81 75 71 60
131 134 136 144 148 148 146 145 143 141 139 138 139 139 138 136 135 134 133 135 134 131 130 128 125 124 121 118 116 114 113 111 110 110 110 108 106 106 103 104 103 101 101 99 97 94 86 81 73 67 62 53 51 48 49 50 54 86 108 107 106 105 98 88 63 41 29 18 55 113 106 88 89 90 81 74 73 76 70 61 77 86 83 82 68
135 135 138 147 149 148 147 145 143 141 140 137 136 135 134 134 133 132 134 138 136 133 132 129 128 125 123 120 119 116 115 114 113 113 113 114 117 116 112 113 115 115 117 111 104 103 97 92 86 72 59 52 56 53 53 49 58 99 116 114 111 108 96 77 60 51 47 55 81 97 96 91 90 91 83 75 72 80 86 70 69 74 76 80 69
136 133 139 149 147 148 146 143 142 139 138 135 134 133 131 131 132 134 137 140 137 135 133 131 130 126 125 123 121 120 119 118 117 116 115 115 118 122 119 115 111 113 117 113 105 101 98 93 83 69 60 58 60 56 52 50 71 110 119 117 111 100 82 62 61 65 71 83 91 90 90 92 88 84 79 78 78 85 98 82 70 72 71 74 72
133 128 134 145 146 147 145 141 140 137 136 134 133 132 131 133 136 139 140 140 138 137 135 133 131 128 126 124 123 122 119 119 119 118 121 121 126 134 134 127 116 117 117 125 127 111 102 94 81 70 63 62 61 55 50 52 87 119 121 117 107 88 69 56 52 58 84 94 92 91 88 85 85 82 77 80 85 86 86 77 74 78 77 76 77
127 126 134 143 145 146 143 140 137 135 135 133 132 133 134 137 140 142 141 141 139 137 136 135 133 130 128 126 123 119 116 113 114 116 121 124 132 145 151 155 150 143 132 131 137 120 105 97 84 73 67 65 63 56 49 55 96 124 123 114 101 82 66 61 51 47 91 99 97 102 96 90 90 88 85 83 83 82 77 75 78 80 80 80 79
126 134 141 141 142 144 143 139 135 134 134 133 134 136 138 140 143 143 143 142 140 138 138 137 134 133 131 128 121 113 107 100 102 105 110 118 126 142 156 167 169 170 154 131 131 123 112 101 87 76 72 71 66 57 52 60 101 125 121 111 98 83 70 63 53 57 97 101 99 107 99 92 95 97 92 84 83 81 76 68 63 64 70 72 68
128 137 138 135 139 143 142 138 135 136 136 136 138 140 142 144 146 145 144 142 141 141 140 139 136 134 132 126 119 110 102 97 96 97 99 107 116 127 145 165 169 168 161 142 133 131 124 106 90 80 78 78 71 62 58 65 104 127 123 114 96 81 71 66 60 65 100 100 103 112 92 83 94 102 90 81 90 82 80 69 53 44 37 39 38
129 134 134 133 137 140 141 137 135 138 140 140 142 144 145 146 148 147 146 144 143 144 142 140 136 132 130 124 117 107 101 100 95 95 92 96 104 104 112 139 160 161 158 152 144 140 133 113 96 87 85 85 79 68 65 72 107 131 128 115 94 76 61 68 76 77 96 99 114 115 64 69 83 101 95 84 91 83 80 64 46 36 29 31 26
129 136 136 135 137 139 139 138 138 142 144 142 146 148 148 149 149 149 149 147 146 146 144 141 136 132 130 125 117 108 101 100 94 89 81 83 90 88 92 108 139 153 155 156 152 147 139 121 104 93 91 93 88 79 74 77 103 133 131 110 89 75 62 66 69 67 92 103 128 140 49 61 42 64 106 90 73 63 66 64 56 48 40 36 28
130 135 133 136 140 141 139 141 143 145 146 143 147 148 148 152 152 151 150 149 148 147 147 141 138 135 132 126 116 107 100 94 90 88 80 78 82 83 85 98 126 148 156 159 156 153 146 130 114 100 95 98 99 93 85 81 91 116 125 109 93 80 69 63 56 62 87 98 128 150 68 42 9 356 85 108 91 74 69 76 63 30 18 23 35
132 133 133 140 142 142 141 143 144 144 146 145 147 149 151 154 155 154 151 152 150 150 149 144 142 137 130 125 118 111 100 87 82 88 88 85 84 84 87 97 113 137 153 157 159 157 152 139 122 106 97 100 112 111 99 91 94 107 116 110 101 87 71 68 70 86 95 97 139 157 2 350 339 326 299 159 127 106 103 85 46 2 357 354 38
135 137 140 145 144 143 143 143 143 144 146 148 149 152 155 155 156 156 153 153 152 152 150 146 142 134 132 129 125 121 109 99 94 98 99 93 88 81 86 98 104 116 141 155 161 162 157 148 132 114 98 94 114 136 128 113 107 112 114 106 98 83 68 62 54 100 118 131 183 185 336 338 332 309 280 154 113 92 115 87 283 301 336 302 17
140 146 151 150 148 145 145 145 145 146 144 147 149 153 159 157 155 156 155 154 154 153 150 146 140 136 141 139 132 129 120 110 99 100 104 95 90 82 78 97 108 114 129 151 161 165 165 162 154 132 108 93 101 157 171 160 141 133 124 114 95 64 55 41 12 22 145 215 251 217 312 344 338 292 281 139 124 101 207 308 320 285 256 290 193
148 157 158 151 150 149 148 148 147 147 145 147 148 155 162 159 155 156 156 154 155 155 152 148 143 148 152 151 150 140 131 117 106 104 99 83 91 91 72 87 104 120 134 152 165 174 179 179 180 174 167 110 351 259 229 215 202 183 167 167 131 36 39 29 350 325 177 212 232 221 287 343 337 294 226 207 157 170 244 281 335 355 266 298 251
156 161 157 148 149 152 152 151 150 150 147 147 148 158 162 157 158 159 158 156 157 157 158 155 152 161 161 158 151 143 150 135 126 145 126 59 67 75 58 79 86 115 142 160 173 185 194 203 212 224 245 276 292 282 257 239 236 235 232 240 276 305 12 10 310 300 285 203 214 231 284 322 328 311 210 215 163 203 267 292 308 261 260 200 234
159 158 153 149 152 156 155 153 152 151 148 148 150 155 156 157 164 164 160 159 161 161 161 160 160 163 156 149 138 144 171 163 145 167 185 299 8 10 359 59 73 87 122 158 182 199 211 223 232 242 250 266 282 274 247 256 263 256 260 285 289 298 340 307 276 281 278 238 243 253 275 299 315 317 230 236 207 217 265 285 238 244 248 213 225
159 155 153 154 157 156 155 155 154 152 149 149 150 150 152 158 165 165 162 163 165 164 163 167 168 165 159 154 156 167 177 189 193 184 198 260 329 293 263 6 71 75 71 124 161 193 227 253 247 246 252 258 269 263 241 256 266 265 271 287 286 288 299 277 269 274 266 254 255 256 269 286 304 313 267 246 248 238 249 259 238 242 248 232 223
156 152 154 157 157 155 155 156 155 152 149 149 149 150 155 158 162 166 165 167 167 164 168 174 170 169 171 166 183 185 180 211 219 191 202 224 256 274 161 174 171 99 46 13 16 313 311 310 277 261 268 267 263 257 253 255 255 263 276 285 289 285 279 269 268 277 273 254 249 256 270 281 299 304 273 253 262 256 252 263 234 224 248 240 229
152 152 154 155 154 155 155 155 154 153 151 150 151 155 159 157 161 167 167 169 169 168 171 175 171 171 177 174 189 191 185 209 202 190 205 212 241 272 234 192 232 229 355 327 273 281 301 302 285 275 279 281 266 250 255 258 251 261 275 276 273 268 268 269 269 275 274 263 258 264 267 273 289 293 286 270 265 261 255 266 244 215 241 250 255
151 153 152 152 154 155 154 154 153 152 153 151 155 162 162 158 161 166 169 173 172 174 177 176 175 173 178 186 192 188 188 202 182 197 204 204 233 244 229 217 208 233 247 277 251 258 286 285 278 278 275 275 270 257 256 261 258 257 269 271 263 254 255 265 271 275 272 262 261 268 267 269 279 283 286 279 269 265 249 258 256 220 238 255 267
149 152 149 151 154 154 152 152 153 154 155 151 155 162 162 158 160 163 169 176 171 175 179 177 181 177 180 192 194 188 191 191 158 179 195 193 211 197 206 205 194 225 217 224 240 241 265 263 266 271 270 273 272 270 267 267 264 255 262 270 268 262 256 256 263 273 279 270 263 263 264 267 274 280 283 282 277 270 249 255 255 224 237 255 262
150 149 147 150 152 150 151 152 153 156 153 151 155 155 152 152 157 162 168 172 169 174 178 177 182 181 185 192 195 191 188 188 167 187 206 191 194 201 215 206 206 237 224 227 244 249 258 254 261 262 265 280 279 281 279 273 272 265 264 262 260 266 265 260 258 263 270 277 277 266 259 260 266 276 279 281 281 275 257 255 256 229 230 249 260
148 146 146 149 149 150 152 152 154 153 150 152 151 145 144 151 158 162 164 168 172 177 176 176 180 182 188 188 193 198 195 197 183 200 215 196 196 210 217 212 213 239 248 260 259 260 261 256 269 274 278 285 282 287 292 285 279 274 271 264 255 256 258 262 260 257 257 267 279 275 266 260 258 264 268 274 277 277 265 255 258 242 227 237 250
144 143 143 145 147 150 149 152 155 149 148 150 145 143 148 157 164 163 162 169 177 175 173 177 179 179 186 183 187 197 199 200 187 201 211 195 204 210 211 218 221 239 258 265 265 265 265 268 278 286 287 285 284 287 293 295 289 282 282 279 273 262 251 255 258 258 254 254 265 271 269 265 262 261 260 264 268 271 268 256 255 249 231 233 242
143 142 138 142 147 146 145 149 151 149 149 146 144 150 157 164 167 162 164 174 176 171 173 178 176 177 182 183 188 188 187 191 178 197 219 198 208 214 217 225 227 249 268 261 264 273 277 285 286 287 287 286 289 289 289 291 290 288 288 287 289 286 271 261 255 255 256 251 255 261 264 264 263 263 261 263 264 264 264 256 254 250 232 233 241
142 141 134 137 138 137 142 141 144 155 151 140 146 157 161 162 159 162 171 173 171 172 176 177 175 181 184 184 190 181 173 180 169 171 219 211 207 212 218 224 228 250 266 263 271 278 281 285 284 292 295 291 293 295 293 290 288 287 288 288 289 293 294 285 270 263 254 245 247 253 262 266 264 264 263 266 266 262 261 257 253 251 237 233 239
136 133 127 128 127 129 134 130 139 152 141 140 154 160 155 152 155 167 173 168 173 180 178 178 179 180 184 183 184 184 172 167 167 167 180 198 203 211 215 219 230 243 257 270 276 278 285 291 293 301 302 299 299 300 297 294 292 289 289 290 287 287 293 293 287 281 262 250 254 255 259 265 266 267 264 265 267 263 263 261 254 251 245 235 234
127 126 124 124 124 125 128 132 143 145 139 151 157 149 148 153 162 169 168 171 181 185 181 183 186 177 180 186 179 181 173 164 175 178 178 193 203 208 210 213 231 252 265 272 283 299 307 308 309 309 307 307 306 303 300 299 297 293 291 290 288 287 287 287 287 286 276 268 266 259 257 261 265 270 268 265 266 265 265 264 259 252 248 240 235
122 123 121 119 117 121 133 144 151 145 143 152 145 141 150 157 164 168 171 176 177 184 187 184 182 173 176 188 184 179 173 172 184 189 187 200 212 201 206 222 243 283 288 300 317 325 318 314 316 313 310 309 306 305 304 303 300 300 299 296 295 293 289 287 286 284 280 276 275 273 272 268 266 270 269 268 267 267 267 265 261 254 250 242 236
108 108 109 117 127 135 146 152 149 139 137 141 141 148 154 153 159 166 172 172 170 175 177 177 179 178 181 186 186 180 176 178 178 205 204 194 223 190 189 226 310 321 308 324 331 327 320 320 319 316 313 310 309 309 309 310 308 305 303 299 297 293 287 283 281 281 279 279 281 283 278 272 273 271 268 271 271 269 268 265 260 255 252 246 237
108 111 122 143 154 151 149 149 141 134 133 138 147 152 146 140 154 175 175 159 153 181 170 176 185 189 194 185 182 177 177 176 162 196 212 124 343 156 160 309 351 324 323 339 338 333 327 325 324 322 320 315 312 311 311 311 309 306 302 297 294 291 286 284 284 283 279 279 282 282 277 275 279 277 272 272 269 266 266 265 261 257 253 248 241
122 133 149 156 152 145 142 141 138 134 129 136 151 154 142 136 149 180 183 137 99 223 193 169 168 176 187 177 170 164 156 148 141 155 124 76 14 64 48 3 360 337 344 354 352 346 334 332 331 327 324 320 314 311 311 309 309 309 303 297 296 293 288 285 285 281 276 275 277 280 283 283 280 276 274 267 261 266 268 262 258 256 251 246 242
137 144 150 141 130 133 140 136 130 126 120 131 147 150 149 143 141 160 176 127 131 179 188 153 148 173 194 176 149 132 118 89 83 82 65 50 19 33 31 12 10 357 353 355 351 347 341 340 335 331 330 326 322 318 317 317 314 311 307 304 300 296 292 286 283 280 274 275 278 280 283 285 281 277 274 265 261 270 271 261 254 253 250 244 240
141 142 139 130 128 138 144 129 117 125 131 135 131 119 136 131 136 158 155 164 163 158 163 157 154 169 182 143 112 91 80 67 53 54 53 47 36 28 24 19 16 6 1 358 354 351 349 346 340 339 337 329 327 326 325 325 319 315 318 316 310 307 301 289 285 281 276 281 284 281 280 280 277 276 277 273 268 267 268 265 256 251 247 241 239
138 142 138 136 136 139 143 132 127 142 146 136 118 122 166 153 175 194 158 161 157 142 145 140 132 135 108 86 83 72 64 57 48 46 42 42 41 33 29 24 20 15 11 7 4 2 359 356 350 346 342 335 331 329 332 333 328 325 323 316 315 322 316 290 283 283 283 293 291 283 283 281 276 276 278 278 272 265 266 264 253 247 244 233 231
133 140 141 138 130 129 143 147 145 149 142 131 127 160 171 150 144 191 150 140 134 131 129 121 114 102 82 72 68 63 57 51 46 42 38 40 38 33 32 26 22 21 17 13 12 13 8 4 360 355 349 343 338 337 341 339 331 328 321 306 316 329 318 293 327 317 301 297 296 295 291 281 275 276 277 275 272 270 269 267 261 253 246 234 227
133 142 145 138 126 130 147 157 153 141 132 134 139 150 150 132 137 152 133 121 124 122 105 104 112 93 78 69 60 59 56 49 44 40 41 43 39 33 31 28 27 27 23 17 15 12 8 7 6 3 358 352 345 340 341 341 335 334 329 313 308 305 301 352 343 326 311 294 295 302 295 285 282 279 276 273 270 270 268 269 267 257 249 244 237
143 148 148 138 130 139 152 156 145 126 123 134 131 124 127 139 145 137 128 125 119 112 101 103 116 94 82 73 62 57 57 53 44 41 42 40 38 35 32 30 28 31 27 19 16 13 9 11 8 5 2 358 351 340 340 346 342 335 328 316 306 296 326 343 334 321 315 308 301 299 292 289 291 287 283 278 273 269 264 267 268 260 256 254 250
147 148 145 139 135 145 153 146 130 123 129 137 132 125 131 144 139 126 134 126 89 102 146 150 112 92 84 79 73 62 56 55 49 45 43 37 36 36 37 36 31 31 26 19 21 18 11 10 7 4 3 359 355 347 343 346 346 346 343 330 302 279 287 314 327 312 310 309 305 303 294 291 291 288 287 282 277 274 268 268 271 270 265 259 257
145 144 143 145 143 143 143 136 131 136 139 137 134 131 137 148 151 149 149 137 128 149 149 127 105 93 84 74 70 65 57 55 53 48 44 37 32 31 31 35 34 29 20 16 20 16 11 8 5 5 3 0 0 356 350 349 348 350 350 345 330 309 293 292 292 295 311 309 310 312 303 297 291 283 283 279 275 276 274 272 271 273 269 263 260
142 143 148 152 146 134 129 131 136 140 138 132 131 133 137 144 148 141 124 130 159 156 122 107 102 95 87 76 69 72 65 56 53 47 42 37 34 32 26 27 31 25 18 15 15 14 13 9 7 7 4 2 3 359 356 355 350 345 346 347 343 337 327 316 303 292 294 300 310 315 313 311 300 284 280 277 275 277 278 275 269 265 264 263 261
140 142 147 146 137 131 131 133 134 133 129 124 122 123 125 131 132 121 120 141 155 136 114 104 101 94 92 88 80 78 71 59 51 44 38 35 34 35 32 28 25 24 20 17 16 15 13 11 11 10 6 5 5 1 359 358 354 349 347 345 342 341 341 339 336 332 328 314 311 318 322 320 309 295 290 282 277 275 276 276 271 265 260 259 260
138 136 137 136 133 131 130 127 124 119 116 115 112 109 108 110 110 109 130 151 141 128 117 108 104 98 94 90 80 72 64 56 50 43 38 37 37 36 34 30 26 25 21 19 18 14 12 15 14 9 10 11 7 5 5 1 357 352 350 348 344 343 343 342 345 345 340 330 324 322 322 324 319 315 315 307 292 277 271 271 268 267 264 262 261
135 132 132 134 134 130 124 118 114 109 108 110 106 101 100 98 98 106 117 121 125 128 117 106 101 94 90 86 81 77 68 59 51 47 42 41 41 38 35 32 30 27 23 23 19 13 17 20 15 13 14 14 10 11 10 4 1 357 356 354 349 348 348 342 339 338 334 328 326 321 321 326 326 323 325 326 319 301 282 271 262 261 265 266 262
Height
777 777 781 782 785 786 788 788 788 789 790 791 791 793 794 796 797 799 800 801 802 803 804 806 807 808 809 809 810 810 810 810 810 810 810 810 810 811 811 812 812 812 813 813 814 814 814 814 815 815 815 815 815 815 815 815 815 816 816 816 816 816 815 815 815 815 815 814 814 814 814 815 815 815 815 816 816 816 816 816 816 816 816 816 816
777 778 781 783 785 786 789 788 789 789 791 791 792 794 795 797 798 800 801 802 803 804 805 806 808 809 810 810 811 811 811 811 811 811 811 812 812 812 812 813 813 814 814 814 815 815 815 815 816 816 816 816 816 816 816 816 816 816 816 816 816 816 816 816 816 815 815 815 815 815 815 815 816 816 816 816 816 816 816 817 817 817 817 817 817
776 780 782 783 786 786 789 789 790 790 791 792 792 794 796 798 799 801 801 803 804 805 806 807 809 810 811 812 812 812 812 812 813 813 813 813 813 814 813 814 814 815 815 815 816 816 817 816 817 817 817 817 817 817 817 817 816 816 816 816 816 816 816 816 816 816 816 816 816 815 815 815 816 816 817 817 817 817 817 817 817 817 818 818 818
776 780 782 785 786 787 789 790 790 791 792 792 793 795 796 798 799 801 802 804 804 806 807 808 809 810 812 812 813 813 813 814 814 814 814 814 814 815 815 815 815 816 816 816 817 817 818 818 818 818 818 818 818 817 817 817 817 817 816 816 816 816 816 816 817 816 817 817 816 816 815 815 816 817 817 817 817 817 817 818 818 818 819 819 819
778 780 783 785 786 788 789 790 791 791 793 793 794 795 797 799 800 802 803 804 805 806 807 809 810 811 813 813 814 814 814 815 815 815 815 816 816 816 816 816 817 817 817 818 818 818 819 819 819 819 819 819 818 818 818 818 817 817 816 816 816 816 816 816 817 817 817 818 818 818 817 816 817 817 817 818 818 818 818 818 818 818 819 819 819
779 781 784 785 787 789 790 791 792 792 793 794 795 796 798 799 801 802 804 805 806 807 808 810 811 812 813 814 815 815 815 815 816 816 816 817 817 817 817 817 818 818 818 819 819 819 819 820 820 820 820 820 819 819 818 818 818 818 817 817 816 817 817 817 817 818 818 818 818 819 819 818 818 818 818 818 818 818 818 818 819 819 819 820 819
780 782 785 786 788 789 790 791 792 793 793 795 796 797 799 800 801 803 805 806 807 808 809 811 811 813 814 815 815 816 816 816 817 817 817 818 818 818 818 818 819 819 819 820 820 820 820 821 821 821 821 820 820 819 819 819 819 818 818 818 818 817 817 817 817 818 818 819 819 820 821 819 819 819 819 819 819 819 819 819 819 820 820 820 819
782 784 786 787 788 789 790 792 793 794 794 796 797 798 799 801 802 804 805 806 807 809 810 811 812 813 815 816 816 817 817 817 818 818 818 818 819 819 819 820 819 820 820 820 821 821 821 821 822 822 821 821 820 820 820 819 819 819 819 818 818 818 818 818 818 818 819 819 819 821 821 820 820 820 820 820 820 820 820 820 820 820 820 820 820
783 785 786 787 788 789 790 792 794 794 795 796 798 799 800 801 803 804 806 807 808 809 811 812 813 814 815 816 817 817 818 818 819 819 819 819 819 819 820 820 820 821 821 821 821 821 821 822 822 822 822 821 821 821 820 820 820 820 819 819 819 819 819 818 819 819 819 820 821 822 822 822 821 821 821 821 821 821 821 821 820 821 820 820 820
784 785 787 787 788 790 791 792 794 795 796 797 799 800 801 802 804 805 807 808 809 810 811 813 813 815 816 817 818 818 819 819 819 819 820 820 820 820 820 821 821 821 821 822 821 822 822 822 822 822 822 822 822 821 821 821 820 820 820 820 820 820 819 819 819 819 820 821 822 822 822 822 822 822 823 823 823 822 822 822 821 822 821 821 821
783 785 787 788 789 791 792 793 794 796 796 798 799 800 802 803 804 806 807 808 809 811 812 813 814 815 817 818 818 819 819 820 820 820 820 820 820 821 821 821 821 821 822 822 822 822 822 823 823 823 823 822 822 822 822 821 821 821 820 820 820 820 820 820 820 819 821 822 822 822 822 822 823 824 824 824 823 823 823 823 823 823 822 822 822
783 785 787 789 790 792 793 794 795 797 797 799 800 801 803 804 805 807 808 809 810 811 812 813 815 816 817 818 819 819 820 820 820 820 821 821 821 821 821 821 821 822 822 822 822 823 823 823 823 823 823 823 823 823 822 822 822 821 821 821 820 821 820 820 820 820 822 823 822 822 822 822 823 824 824 824 824 824 824 824 824 823 823 823 823
783 785 787 790 791 793 794 795 796 797 798 799 801 802 803 805 806 807 808 810 810 812 812 814 815 816 817 818 819 820 820 820 821 821 821 821 821 821 821 821 821 822 822 822 823 823 824 824 824 824 824 824 824 823 823 823 822 822 822 821 821 821 820 821 820 821 823 824 823 822 822 822 823 824 824 824 824 825 824 825 825 824 824 824 824
783 785 788 791 792 794 794 796 797 798 799 800 801 803 804 805 806 808 809 810 811 812 813 814 815 817 818 819 820 820 821 821 821 821 821 821 821 821 821 821 822 822 822 823 823 823 824 824 824 824 824 824 824 824 824 824 823 823 823 822 822 821 821 821 821 822 824 824 823 823 822 823 823 824 824 824 824 825 825 825 825 825 825 825 825
783 785 788 791 793 795 796 797 797 798 799 800 802 803 804 806 807 808 809 810 811 812 813 815 816 817 818 819 820 820 821 821 821 821 821 821 821 821 821 821 821 822 822 823 823 824 824 824 824 824 824 825 825 825 824 825 824 824 823 823 823 822 822 822 822 823 825 824 824 823 823 824 824 824 825 825 825 825 825 825 825 825 825 825 825
783 784 788 792 794 795 796 797 798 799 800 801 802 803 805 806 808 809 810 811 812 813 814 815 816 818 819 820 820 820 821 821 822 821 821 821 821 822 821 822 822 822 822 823 823 824 824 824 825 825 825 825 825 825 825 825 825 825 824 824 824 823 823 823 822 824 825 825 824 823 823 824 824 825 825 825 825 825 825 825 825 825 825 825 825
783 785 787 792 794 795 797 798 798 799 800 802 803 804 806 806 808 809 810 811 812 813 814 816 817 818 819 820 820 821 821 821 821 821 821 821 821 822 821 822 822 822 822 823 824 824 825 825 825 825 825 826 826 826 826 826 825 825 825 825 824 824 824 823 823 824 825 825 824 823 824 824 824 824 824 825 825 825 825 825 825 825 825 825 825
783 785 788 792 794 795 796 798 799 800 801 802 803 805 806 807 809 809 811 811 812 814 814 816 817 818 819 820 820 820 821 821 821 821 821 821 821 822 822 822 822 823 823 823 824 824 825 825 826 826 826 826 826 826 826 826 826 826 826 825 825 825 824 824 824 824 826 825 824 824 824 825 825 825 824 824 824 825 825 825 825 825 825 825 825
784 786 788 792 793 795 796 798 799 800 802 802 804 805 807 808 809 810 811 812 813 814 815 816 817 818 819 820 821 820 821 821 821 821 821 822 822 822 822 822 823 823 823 824 824 825 825 826 826 826 827 827 827 827 827 827 827 827 827 826 826 825 825 825 824 825 826 825 824 825 825 825 825 825 824 824 824 824 824 824 825 825 825 825 825
783 786 788 791 792 795 795 798 799 801 802 803 805 805 807 808 809 811 811 812 813 814 815 816 817 818 819 820 820 821 821 821 821 821 822 822 822 823 822 822 823 823 824 824 825 825 825 826 826 827 827 827 827 827 827 828 827 827 827 827 827 826 825 824 824 826 826 824 824 825 825 825 825 824 824 824 824 825 824 824 824 824 825 825 825
783 785 787 790 791 794 795 797 799 801 802 803 805 806 808 809 810 811 812 813 813 815 816 816 817 818 819 820 820 821 821 821 822 822 822 823 823 823 823 823 823 824 824 824 825 825 826 826 826 827 827 827 827 827 828 828 828 827 827 827 827 826 826 825 825 826 825 823 823 824 824 824 824 824 824 824 824 825 824 824 824 824 824 825 825
782 784 786 788 791 793 795 797 798 801 802 803 805 806 808 809 811 811 812 813 814 815 815 816 817 818 819 820 821 821 821 822 822 823 823 824 824 824 824 824 824 824 825 825 825 826 826 826 827 827 827 827 827 827 827 827 828 827 827 827 827 826 826 825 826 826 825 823 823 824 824 824 824 824 824 824 824 824 824 824 824 824 824 825 825
780 782 785 788 790 793 794 796 798 800 801 803 804 806 808 809 811 811 812 813 814 815 816 817 818 818 819 820 821 821 822 823 824 825 824 825 825 825 825 825 825 825 825 825 825 826 826 826 827 827 827 827 827 827 827 827 827 827 827 827 827 826 825 826 826 826 825 824 823 824 824 824 824 823 823 823 824 824 824 824 824 824 824 824 825
779 781 784 787 790 791 794 795 797 799 801 802 804 805 807 809 811 811 812 814 814 815 816 817 818 819 820 820 821 822 824 824 825 826 826 826 826 826 826 826 826 826 826 826 826 826 826 826 826 826 826 826 826 826 826 826 826 826 826 826 827 826 825 826 826 826 825 824 823 824 824 824 824 823 823 823 823 823 823 823 823 824 824 824 824
777 781 784 787 789 791 793 795 797 798 800 802 803 805 807 809 810 811 813 813 815 816 817 818 818 820 820 821 822 823 824 824 825 826 826 827 826 827 827 826 827 826 826 826 825 826 826 826 826 826 826 825 825 825 826 826 826 825 825 826 826 825 825 826 826 825 825 823 823 823 823 824 824 823 823 823 822 822 822 822 823 824 824 824 824
777 780 783 786 788 790 792 794 797 798 800 802 803 805 807 808 810 811 813 813 815 816 817 818 818 820 820 821 822 823 824 825 826 827 827 827 827 826 826 826 826 826 826 826 825 825 825 825 825 825 825 825 825 825 825 826 826 826 825 825 825 825 825 826 825 825 825 823 823 823 823 823 823 823 823 822 822 822 822 822 822 823 823 823 823
776 779 782 785 787 789 792 794 796 798 800 802 803 805 806 808 810 811 813 813 815 815 816 817 818 819 821 821 822 823 824 826 827 827 828 827 827 827 826 827 826 826 826 826 826 825 825 825 824 824 824 824 824 824 824 825 825 825 825 825 824 824 824 825 825 825 824 823 822 822 822 822 822 822 822 822 821 821 821 821 821 822 823 823 823
775 778 781 783 787 789 791 794 796 798 800 802 803 805 807 809 810 811 813 814 814 815 816 817 818 819 821 822 822 823 825 826 827 827 825 825 826 826 827 827 827 827 826 826 826 825 825 825 824 824 824 824 824 824 824 824 824 824 824 824 824 824 823 824 824 824 824 822 822 822 821 821 821 821 821 821 821 821 821 821 821 822 822 822 822
774 777 780 783 787 789 791 794 796 798 800 802 803 805 807 809 810 811 812 814 814 815 816 817 818 819 820 821 822 823 825 826 826 825 823 823 825 825 826 827 827 826 826 826 825 825 825 824 824 824 824 824 823 824 823 823 823 823 823 823 823 823 823 823 823 823 823 822 821 821 821 820 820 820 820 820 820 820 820 820 821 821 822 822 822
773 776 780 783 786 789 792 794 796 799 801 802 804 805 807 809 810 812 812 814 814 815 816 817 818 819 820 821 822 823 824 825 825 824 822 823 824 824 826 827 827 826 825 825 825 825 824 824 824 824 823 823 823 823 823 823 822 822 822 822 821 821 822 822 822 822 822 822 820 820 820 819 819 819 819 819 819 819 819 819 819 820 821 821 822
772 776 780 783 787 790 793 795 798 800 801 803 805 806 808 810 811 812 813 814 814 815 816 817 818 820 820 821 822 822 823 824 824 824 823 823 823 824 825 826 826 826 825 825 825 824 824 824 824 823 823 822 822 822 822 822 822 822 821 821 820 820 820 821 821 821 821 821 819 819 819 818 818 818 818 818 817 818 818 818 818 819 820 821 821
773 777 781 785 788 792 794 797 799 801 803 804 806 808 810 812 813 813 814 815 815 816 817 818 819 820 820 821 821 822 823 823 824 824 823 823 823 824 825 826 826 826 826 825 824 824 823 823 823 823 822 822 822 821 822 821 821 821 821 821 820 819 819 819 819 819 819 819 819 818 817 817 817 817 816 816 816 816 817 818 818 818 819 820 820
775 780 783 787 790 793 796 799 801 803 805 806 808 810 812 813 814 815 815 816 816 817 818 819 819 820 821 821 821 822 823 823 824 824 824 824 824 825 826 826 826 826 825 824 824 824 823 823 823 822 822 822 821 821 821 821 821 820 820 820 819 819 819 818 817 817 817 818 818 817 816 816 816 816 815 815 815 815 815 817 817 817 818 819 819
777 782 785 788 792 795 798 800 803 805 806 808 810 812 813 814 815 815 816 816 817 818 819 820 820 821 821 822 822 822 823 823 824 825 825 826 826 826 826 826 826 825 825 824 824 823 823 823 822 822 821 821 821 821 821 820 820 820 819 819 818 818 817 817 817 816 816 816 816 816 815 815 815 814 814 814 814 814 814 814 815 816 816 817 818
780 784 787 790 794 797 800 802 804 806 808 810 811 812 813 814 815 815 816 817 818 819 820 821 821 821 822 822 822 823 823 824 824 825 825 826 826 826 826 826 825 825 824 824 823 823 822 822 821 821 821 820 821 820 820 820 819 819 819 818 817 817 816 816 815 815 815 814 814 814 813 813 813 813 813 813 813 812 812 812 813 814 815 816 817
782 786 790 793 797 800 801 802 804 806 808 810 812 813 814 814 815 816 817 818 819 821 822 822 822 822 822 823 824 824 823 824 824 825 825 825 825 825 825 825 824 824 823 823 822 822 822 821 821 821 820 820 820 820 819 819 818 818 817 817 816 816 815 814 814 813 813 813 812 812 812 812 812 812 811 811 811 811 811 811 811 812 813 814 815
788 790 794 797 799 800 800 802 804 806 808 810 812 813 815 816 816 817 818 819 821 823 823 823 823 823 824 824 825 824 824 824 824 825 825 825 825 825 824 824 824 823 823 822 822 821 821 821 820 820 820 819 819 819 818 818 817 817 816 816 815 815 814 813 812 812 811 811 810 811 811 810 810 810 810 810 809 809 809 808 809 809 810 812 813
790 792 794 795 795 797 799 801 805 807 808 810 812 814 815 817 818 818 818 819 822 824 825 825 824 824 825 825 825 824 824 824 824 825 824 825 825 824 824 823 823 822 822 821 821 821 821 820 819 819 819 819 818 818 817 817 817 816 815 815 814 814 812 811 811 810 810 809 808 808 808 808 808 808 808 808 808 808 807 807 807 807 808 809 811
789 789 789 790 792 795 798 801 805 807 809 811 813 814 816 818 819 818 818 820 822 823 824 823 823 824 825 825 825 825 825 824 824 825 824 824 824 824 824 823 822 822 821 821 821 820 820 819 819 818 818 818 817 817 817 816 815 815 814 813 812 811 810 809 809 808 808 807 806 806 805 806 805 806 806 806 806 807 806 806 805 805 806 807 808
789 790 791 793 795 797 799 802 805 807 810 812 814 816 817 819 820 820 821 822 822 822 823 822 823 827 828 826 826 825 825 825 825 825 825 824 824 824 823 823 822 822 822 821 821 820 820 819 818 818 817 817 817 816 816 815 814 813 812 811 811 809 808 807 807 807 806 805 805 804 803 803 803 803 804 804 805 805 805 805 804 803 803 804 806
789 790 792 795 797 800 801 804 806 808 809 812 816 818 819 820 821 822 823 824 825 825 826 826 827 831 831 827 826 826 826 826 825 825 825 824 824 824 823 823 823 822 822 821 821 821 820 819 819 818 817 816 816 816 815 814 813 812 810 809 808 807 806 805 805 805 805 804 803 802 802 802 802 802 802 802 804 804 803 802 802 801 800 801 803
790 790 791 793 796 798 800 803 805 806 808 811 815 818 820 821 822 823 824 826 827 827 829 830 830 831 830 827 826 826 826 826 826 825 825 825 824 824 824 823 823 822 822 821 821 821 820 820 819 818 817 817 816 816 815 814 813 813 811 808 806 805 804 803 804 804 803 803 801 800 800 800 800 800 800 800 801 802 801 800 801 800 799 800 801
790 791 792 793 795 796 798 801 803 805 808 812 814 815 818 820 822 823 825 826 827 828 829 829 829 831 830 827 826 826 826 826 826 826 825 825 824 824 824 824 823 822 822 822 821 821 820 820 819 818 818 817 816 816 816 815 814 813 812 810 808 806 805 803 803 804 803 801 800 800 799 798 798 798 798 798 798 799 799 798 799 798 798 798 799
790 792 793 794 795 796 797 799 802 806 809 813 815 816 817 819 821 823 824 825 826 828 827 827 829 831 830 828 827 826 826 826 826 826 825 825 825 825 824 824 823 822 822 822 821 821 821 820 819 819 818 817 817 816 816 815 815 814 814 813 810 808 808 805 803 802 801 800 799 798 797 796 796 796 796 796 796 797 797 796 796 796 796 797 798
792 793 793 794 795 796 797 799 802 806 808 811 815 818 818 819 820 822 823 824 825 825 826 829 831 832 830 829 828 827 827 827 827 827 826 826 826 825 825 824 823 823 823 822 822 821 821 820 820 819 819 819 818 817 816 816 815 815 815 815 813 812 810 808 806 802 800 800 798 797 796 796 795 794 794 794 794 795 795 794 794 794 794 794 795
792 793 793 794 794 796 798 800 803 805 807 808 812 816 818 820 822 823 824 825 826 826 829 832 833 832 830 829 829 828 828 828 828 828 828 827 827 826 825 824 824 824 823 823 822 822 821 821 821 820 820 819 819 817 816 815 815 815 815 815 816 815 812 809 809 805 800 798 798 797 795 794 794 793 793 793 793 793 792 792 792 792 791 791 791
792 793 793 794 795 797 799 800 802 804 805 806 810 814 817 821 823 825 827 827 828 831 833 833 832 831 831 830 829 829 830 830 830 829 829 829 828 827 826 825 825 825 824 823 823 823 822 822 822 821 821 820 819 819 818 816 815 815 815 815 814 814 812 811 810 808 804 799 796 796 795 793 792 792 791 791 790 790 790 789 789 789 789 788 787
791 792 793 794 795 798 798 799 800 801 803 806 809 813 816 819 823 825 827 828 831 834 833 832 831 831 831 830 830 831 831 831 831 830 830 830 829 828 827 827 826 826 825 824 824 823 823 822 822 822 822 821 821 820 819 819 817 816 815 814 813 812 812 811 810 809 808 804 797 795 794 794 792 790 789 789 788 788 787 786 786 786 786 785 785
791 792 792 794 795 796 797 798 800 801 803 805 808 812 815 818 820 821 825 830 832 833 832 831 831 831 831 831 831 832 832 832 831 831 831 831 830 830 829 829 828 827 826 825 824 824 823 823 822 822 822 822 822 821 820 820 820 818 817 815 814 813 811 810 809 808 807 806 801 797 794 793 791 790 788 787 786 786 785 784 783 783 783 783 782
791 792 793 793 794 795 796 797 799 800 802 805 808 811 814 817 818 820 824 830 831 831 831 831 831 831 832 832 832 832 832 832 832 832 833 832 831 831 830 830 829 828 827 826 825 825 824 823 823 823 823 822 822 821 821 821 820 820 819 818 816 814 812 810 810 809 807 806 804 800 797 794 792 790 788 787 786 785 784 783 782 781 781 780 780
790 792 793 794 795 796 796 797 798 800 802 806 809 811 814 816 818 821 825 828 829 830 830 831 831 831 831 832 832 832 832 833 833 833 833 833 832 831 831 830 830 829 828 827 826 825 825 824 824 824 823 823 822 822 822 822 821 821 820 820 818 817 816 814 813 812 810 807 805 802 798 796 794 791 789 787 786 784 783 781 780 779 779 778 777